Terminal Aerodrome Forecast
Issued by NWS King Salmon, AK

Home | Current Version | Previous Version | Text Only | Print | Product List | Glossary On
Versions: 1 2 3 4 5 6 7 8 9 10 11 12 13 14 15 16 17 18 19 20 21 22 23 24 25 26 27 28
819
FTAK31 PANC 282140 AAA
TAFAKN
TAF AMD
PAKN 282140Z 2822/2918 15008KT 6SM -SHRA BKN020 OVC050
      TEMPO 2822/2824 18020G25KT
     FM290500 13007KT P6SM VCSH SCT025 BKN050=

USA.gov is the U.S. government's official web portal to all federal, state and local government web resources and services.